TimeCST,TemperatureF,Dew PointF,Humidity,Sea Level PressureIn,VisibilityMPH,Wind Direction,Wind SpeedMPH,Gust SpeedMPH,PrecipitationIn,Events,Conditions,WindDirDegrees,DateUTC
12:55 AM,37.8,37.8,100,30.10,10.0,NNW,12.7,-,N/A,,Clear,330,2013-03-05 06:55:00
1:55 AM,37.4,31.8,80,30.11,10.0,North,20.7,24.2,N/A,,Clear,350,2013-03-05 07:55:00
2:55 AM,34.9,21.7,59,30.17,10.0,North,26.5,32.2,0.01,,Clear,360,2013-03-05 08:55:00
3:55 AM,32.7,16.9,52,30.21,10.0,North,21.9,29.9,N/A,,Clear,350,2013-03-05 09:55:00
4:55 AM,31.3,16.7,55,30.24,10.0,NNW,19.6,29.9,N/A,,Clear,340,2013-03-05 10:55:00
5:55 AM,30.0,14.4,52,30.26,10.0,North,13.8,-,N/A,,Clear,350,2013-03-05 11:55:00
6:55 AM,28.9,16.5,60,30.28,10.0,NNW,15.0,20.7,N/A,,Clear,330,2013-03-05 12:55:00
7:55 AM,29.8,16.3,57,30.29,10.0,NW,16.1,-,N/A,,Clear,320,2013-03-05 13:55:00
8:55 AM,31.5,16.2,53,30.32,10.0,NNW,26.5,36.8,N/A,,Clear,340,2013-03-05 14:55:00
9:55 AM,33.4,17.1,51,30.33,10.0,North,24.2,33.4,N/A,,Clear,350,2013-03-05 15:55:00
10:55 AM,35.1,18.3,51,30.35,10.0,NW,20.7,29.9,N/A,,Clear,320,2013-03-05 16:55:00
11:55 AM,36.7,18.9,49,30.34,10.0,NNW,18.4,29.9,N/A,,Clear,330,2013-03-05 17:55:00
12:55 PM,38.7,20.7,48,30.34,10.0,NNW,20.7,28.8,N/A,,Clear,340,2013-03-05 18:55:00
1:55 PM,39.9,20.5,46,30.32,10.0,North,24.2,28.8,N/A,,Clear,360,2013-03-05 19:55:00
2:55 PM,40.6,20.5,45,30.33,10.0,North,18.4,28.8,N/A,,Clear,350,2013-03-05 20:55:00
3:55 PM,41.4,20.3,43,30.32,10.0,NNW,19.6,31.1,N/A,,Clear,340,2013-03-05 21:55:00
4:55 PM,41.4,20.3,43,30.32,10.0,NNW,20.7,28.8,N/A,,Clear,340,2013-03-05 22:55:00
5:55 PM,40.1,20.3,45,30.34,10.0,North,16.1,-,N/A,,Clear,360,2013-03-05 23:55:00
6:55 PM,38.3,20.7,49,30.37,10.0,NNW,11.5,-,N/A,,Clear,330,2013-03-06 00:55:00
7:55 PM,36.7,21.2,54,30.38,10.0,NNW,10.4,-,N/A,,Clear,340,2013-03-06 01:55:00
8:55 PM,35.2,21.6,58,30.38,10.0,North,12.7,-,N/A,,Clear,350,2013-03-06 02:55:00
9:55 PM,33.1,22.6,66,30.42,10.0,North,8.1,-,N/A,,Clear,350,2013-03-06 03:55:00
10:55 PM,31.6,20.7,64,30.42,10.0,North,8.1,-,N/A,,Clear,10,2013-03-06 04:55:00
11:55 PM,30.4,19.8,65,30.42,10.0,North,5.8,-,N/A,,Clear,360,2013-03-06 05:55:00